Year,Month,Day,Hour,Minute,Value (Times are PST for temperature in C)
2009,07,02,00,00,14.90
2009,07,02,00,01,14.90
2009,07,02,00,02,14.80
2009,07,02,00,03,14.70
2009,07,02,00,04,14.60
2009,07,02,00,05,14.60
2009,07,02,00,06,14.50
2009,07,02,00,07,14.50
2009,07,02,00,08,14.40
2009,07,02,00,09,14.30
2009,07,02,00,10,14.30
2009,07,02,00,11,14.20
2009,07,02,00,12,14.20
2009,07,02,00,13,14.10
2009,07,02,00,14,14.10
2009,07,02,00,15,14.00
2009,07,02,00,16,14.00
2009,07,02,00,17,13.90
2009,07,02,00,18,13.90
2009,07,02,00,19,13.80
2009,07,02,00,20,13.80
2009,07,02,00,21,13.80
2009,07,02,00,22,13.70
2009,07,02,00,23,13.70
2009,07,02,00,24,13.60
2009,07,02,00,25,13.60
2009,07,02,00,26,13.60
2009,07,02,00,27,13.50
2009,07,02,00,28,13.50
2009,07,02,00,29,13.40
2009,07,02,00,30,13.40
2009,07,02,00,31,13.40
2009,07,02,00,32,13.30
2009,07,02,00,33,13.30
2009,07,02,00,34,13.30
2009,07,02,00,35,13.30
2009,07,02,00,36,13.20
2009,07,02,00,37,13.20
2009,07,02,00,38,13.20
2009,07,02,00,39,13.20
2009,07,02,00,40,13.20
2009,07,02,00,41,13.20
2009,07,02,00,42,13.20
2009,07,02,00,43,13.20
2009,07,02,00,44,13.20
2009,07,02,00,45,13.20
2009,07,02,00,46,13.20
2009,07,02,00,47,13.20
2009,07,02,00,48,13.20
2009,07,02,00,49,13.10
2009,07,02,00,50,13.10
2009,07,02,00,51,13.10
2009,07,02,00,52,13.10
2009,07,02,00,53,13.10
2009,07,02,00,54,13.10
2009,07,02,00,55,13.10
2009,07,02,00,56,13.10
2009,07,02,00,57,13.10
2009,07,02,00,58,13.00
2009,07,02,00,59,13.00
2009,07,02,01,00,13.00
2009,07,02,01,01,13.00
2009,07,02,01,02,12.90
2009,07,02,01,03,12.90
2009,07,02,01,04,12.90
2009,07,02,01,05,12.80
2009,07,02,01,06,12.80
2009,07,02,01,07,12.70
2009,07,02,01,08,12.70
2009,07,02,01,09,12.70
2009,07,02,01,10,12.60
2009,07,02,01,11,12.60
2009,07,02,01,12,12.50
2009,07,02,01,13,12.50
2009,07,02,01,14,12.50
2009,07,02,01,15,12.40
2009,07,02,01,16,12.40
2009,07,02,01,17,12.40
2009,07,02,01,18,12.30
2009,07,02,01,19,12.30
2009,07,02,01,20,12.30
2009,07,02,01,21,12.30
2009,07,02,01,22,12.30
2009,07,02,01,23,12.20
2009,07,02,01,24,12.20
2009,07,02,01,25,12.20
2009,07,02,01,26,12.20
2009,07,02,01,27,12.20
2009,07,02,01,28,12.20
2009,07,02,01,29,12.20
2009,07,02,01,30,12.20
2009,07,02,01,31,12.20
2009,07,02,01,32,12.20
2009,07,02,01,33,12.20
2009,07,02,01,34,12.20
2009,07,02,01,35,12.20
2009,07,02,01,36,12.10
2009,07,02,01,37,12.10
2009,07,02,01,38,12.10
2009,07,02,01,39,12.10
2009,07,02,01,40,12.00
2009,07,02,01,41,12.00
2009,07,02,01,42,11.90
2009,07,02,01,43,11.90
2009,07,02,01,44,11.90
2009,07,02,01,45,11.80
2009,07,02,01,46,11.80
2009,07,02,01,47,11.80
2009,07,02,01,48,11.80
2009,07,02,01,49,11.80
2009,07,02,01,50,11.80
2009,07,02,01,51,11.70
2009,07,02,01,52,11.70
2009,07,02,01,53,11.70
2009,07,02,01,54,11.70
2009,07,02,01,55,11.70
2009,07,02,01,56,11.80
2009,07,02,01,57,11.80
2009,07,02,01,58,11.80
2009,07,02,01,59,11.80
2009,07,02,02,00,11.80
2009,07,02,02,01,11.80
2009,07,02,02,02,11.80
2009,07,02,02,03,11.90
2009,07,02,02,04,11.90
2009,07,02,02,05,11.90
2009,07,02,02,06,11.90
2009,07,02,02,07,11.90
2009,07,02,02,08,11.90
2009,07,02,02,09,12.00
2009,07,02,02,10,12.00
2009,07,02,02,11,12.00
2009,07,02,02,12,12.10
2009,07,02,02,13,12.10
2009,07,02,02,14,12.10
2009,07,02,02,15,12.20
2009,07,02,02,16,12.20
2009,07,02,02,17,12.30
2009,07,02,02,18,12.30
2009,07,02,02,19,12.30
2009,07,02,02,20,12.40
2009,07,02,02,21,12.40
2009,07,02,02,22,12.40
2009,07,02,02,23,12.50
2009,07,02,02,24,12.50
2009,07,02,02,25,12.60
2009,07,02,02,26,12.60
2009,07,02,02,27,12.60
2009,07,02,02,28,12.60
2009,07,02,02,29,12.60
2009,07,02,02,30,12.70
2009,07,02,02,31,12.70
2009,07,02,02,32,12.70
2009,07,02,02,33,12.70
2009,07,02,02,34,12.70
2009,07,02,02,35,12.60
2009,07,02,02,36,12.60
2009,07,02,02,37,12.60
2009,07,02,02,38,12.50
2009,07,02,02,39,12.50
2009,07,02,02,40,12.40
2009,07,02,02,41,12.40
2009,07,02,02,42,12.30
2009,07,02,02,43,12.30
2009,07,02,02,44,12.20
2009,07,02,02,45,12.20
2009,07,02,02,46,12.10
2009,07,02,02,47,12.10
2009,07,02,02,48,12.00
2009,07,02,02,49,12.00
2009,07,02,02,50,11.90
2009,07,02,02,51,11.90
2009,07,02,02,52,11.80
2009,07,02,02,53,11.80
2009,07,02,02,54,11.80
2009,07,02,02,55,11.70
2009,07,02,02,56,11.70
2009,07,02,02,57,11.60
2009,07,02,02,58,11.60
2009,07,02,02,59,11.60
2009,07,02,03,00,11.50
2009,07,02,03,01,11.40
2009,07,02,03,02,11.40
2009,07,02,03,03,11.40
2009,07,02,03,04,11.30
2009,07,02,03,05,11.30
2009,07,02,03,06,11.30
2009,07,02,03,07,11.30
2009,07,02,03,08,11.30
2009,07,02,03,09,11.30
2009,07,02,03,10,11.30
2009,07,02,03,11,11.30
2009,07,02,03,12,11.30
2009,07,02,03,13,11.30
2009,07,02,03,14,11.40
2009,07,02,03,15,11.40
2009,07,02,03,16,11.40
2009,07,02,03,17,11.50
2009,07,02,03,18,11.50
2009,07,02,03,19,11.50
2009,07,02,03,20,11.50
2009,07,02,03,21,11.50
2009,07,02,03,22,11.50
2009,07,02,03,23,11.50
2009,07,02,03,24,11.50
2009,07,02,03,25,11.50
2009,07,02,03,26,11.40
2009,07,02,03,27,11.40
2009,07,02,03,28,11.40
2009,07,02,03,29,11.30
2009,07,02,03,30,11.30
2009,07,02,03,31,11.30
2009,07,02,03,32,11.30
2009,07,02,03,33,11.20
2009,07,02,03,34,11.20
2009,07,02,03,35,11.20
2009,07,02,03,36,11.10
2009,07,02,03,37,11.10
2009,07,02,03,38,11.00
2009,07,02,03,39,11.00
2009,07,02,03,40,10.90
2009,07,02,03,41,10.90
2009,07,02,03,42,10.80
2009,07,02,03,43,10.80
2009,07,02,03,44,10.80
2009,07,02,03,45,10.80
2009,07,02,03,46,10.70
2009,07,02,03,47,10.70
2009,07,02,03,48,10.70
2009,07,02,03,49,10.70
2009,07,02,03,50,10.70
2009,07,02,03,51,10.70
2009,07,02,03,52,10.70
2009,07,02,03,53,10.70
2009,07,02,03,54,10.70
2009,07,02,03,55,10.70
2009,07,02,03,56,10.70
2009,07,02,03,57,10.70
2009,07,02,03,58,10.70
2009,07,02,03,59,10.70
2009,07,02,04,00,10.80
2009,07,02,04,01,10.80
2009,07,02,04,02,10.80
2009,07,02,04,03,10.80
2009,07,02,04,04,10.80
2009,07,02,04,05,10.80
2009,07,02,04,06,10.80
2009,07,02,04,07,10.80
2009,07,02,04,08,10.90
2009,07,02,04,09,10.90
2009,07,02,04,10,10.90
2009,07,02,04,11,10.90
2009,07,02,04,12,10.80
2009,07,02,04,13,10.80
2009,07,02,04,14,10.80
2009,07,02,04,15,10.80
2009,07,02,04,16,10.80
2009,07,02,04,17,10.80
2009,07,02,04,18,10.80
2009,07,02,04,19,10.70
2009,07,02,04,20,10.70
2009,07,02,04,21,10.70
2009,07,02,04,22,10.70
2009,07,02,04,23,10.70
2009,07,02,04,24,10.70
2009,07,02,04,25,10.70
2009,07,02,04,26,10.70
2009,07,02,04,27,10.70
2009,07,02,04,28,10.70
2009,07,02,04,29,10.70
2009,07,02,04,30,10.70
2009,07,02,04,31,10.70
2009,07,02,04,32,10.70
2009,07,02,04,33,10.70
2009,07,02,04,34,10.70
2009,07,02,04,35,10.70
2009,07,02,04,36,10.60
2009,07,02,04,37,10.60
2009,07,02,04,38,10.60
2009,07,02,04,39,10.60
2009,07,02,04,40,10.60
2009,07,02,04,41,10.50
2009,07,02,04,42,10.50
2009,07,02,04,43,10.40
2009,07,02,04,44,10.40
2009,07,02,04,45,10.40
2009,07,02,04,46,10.30
2009,07,02,04,47,10.30
2009,07,02,04,48,10.30
2009,07,02,04,49,10.30
2009,07,02,04,50,10.30
2009,07,02,04,51,10.30
2009,07,02,04,52,10.30
2009,07,02,04,53,10.30
2009,07,02,04,54,10.30
2009,07,02,04,55,10.30
2009,07,02,04,56,10.30
2009,07,02,04,57,10.30
2009,07,02,04,58,10.30
2009,07,02,04,59,10.30
2009,07,02,05,00,10.30
2009,07,02,05,01,10.30
2009,07,02,05,02,10.40
2009,07,02,05,03,10.40
2009,07,02,05,04,10.40
2009,07,02,05,05,10.40
2009,07,02,05,06,10.40
2009,07,02,05,07,10.40
2009,07,02,05,08,10.50
2009,07,02,05,09,10.50
2009,07,02,05,10,10.60
2009,07,02,05,11,10.60
2009,07,02,05,12,10.60
2009,07,02,05,13,10.70
2009,07,02,05,14,10.70
2009,07,02,05,15,10.70
2009,07,02,05,16,10.70
2009,07,02,05,17,10.70
2009,07,02,05,18,10.70
2009,07,02,05,19,10.70
2009,07,02,05,20,10.70
2009,07,02,05,21,10.70
2009,07,02,05,22,10.70
2009,07,02,05,23,10.70
2009,07,02,05,24,10.70
2009,07,02,05,25,10.70
2009,07,02,05,26,10.70
2009,07,02,05,27,10.70
2009,07,02,05,28,10.70
2009,07,02,05,29,10.70
2009,07,02,05,30,10.70
2009,07,02,05,31,10.70
2009,07,02,05,32,10.70
2009,07,02,05,33,10.70
2009,07,02,05,34,10.70
2009,07,02,05,35,10.80
2009,07,02,05,36,10.80
2009,07,02,05,37,10.70
2009,07,02,05,38,10.70
2009,07,02,05,39,10.70
2009,07,02,05,40,10.70
2009,07,02,05,41,10.80
2009,07,02,05,42,10.80
2009,07,02,05,43,10.80
2009,07,02,05,44,10.70
2009,07,02,05,45,10.80
2009,07,02,05,46,10.80
2009,07,02,05,47,10.80
2009,07,02,05,48,10.80
2009,07,02,05,49,10.80
2009,07,02,05,50,10.80
2009,07,02,05,51,10.80
2009,07,02,05,52,10.80
2009,07,02,05,53,10.90
2009,07,02,05,54,10.90
2009,07,02,05,55,10.90
2009,07,02,05,56,10.90
2009,07,02,05,57,11.00
2009,07,02,05,58,11.00
2009,07,02,05,59,11.00
2009,07,02,06,00,11.00
2009,07,02,06,01,11.00
2009,07,02,06,02,11.10
2009,07,02,06,03,11.10
2009,07,02,06,04,11.10
2009,07,02,06,05,11.10
2009,07,02,06,06,11.10
2009,07,02,06,07,11.10
2009,07,02,06,08,11.10
2009,07,02,06,09,11.10
2009,07,02,06,10,11.10
2009,07,02,06,11,11.00
2009,07,02,06,12,11.00
2009,07,02,06,13,11.00
2009,07,02,06,14,10.90
2009,07,02,06,15,10.90
2009,07,02,06,16,10.90
2009,07,02,06,17,10.90
2009,07,02,06,18,10.90
2009,07,02,06,19,10.90
2009,07,02,06,20,10.90
2009,07,02,06,21,10.90
2009,07,02,06,22,10.90
2009,07,02,06,23,10.90
2009,07,02,06,24,10.90
2009,07,02,06,25,10.90
2009,07,02,06,26,10.90
2009,07,02,06,27,10.90
2009,07,02,06,28,11.00
2009,07,02,06,29,11.00
2009,07,02,06,30,11.00
2009,07,02,06,31,11.00
2009,07,02,06,32,11.10
2009,07,02,06,33,11.10
2009,07,02,06,34,11.10
2009,07,02,06,35,11.20
2009,07,02,06,36,11.20
2009,07,02,06,37,11.20
2009,07,02,06,38,11.30
2009,07,02,06,39,11.30
2009,07,02,06,40,11.30
2009,07,02,06,41,11.30
2009,07,02,06,42,11.40
2009,07,02,06,43,11.40
2009,07,02,06,44,11.40
2009,07,02,06,45,11.40
2009,07,02,06,46,11.40
2009,07,02,06,47,11.40
2009,07,02,06,48,11.40
2009,07,02,06,49,11.50
2009,07,02,06,50,11.50
2009,07,02,06,51,11.50
2009,07,02,06,52,11.50
2009,07,02,06,53,11.60
2009,07,02,06,54,11.60
2009,07,02,06,55,11.70
2009,07,02,06,56,11.80
2009,07,02,06,57,11.90
2009,07,02,06,58,11.90
2009,07,02,06,59,12.00
2009,07,02,07,00,12.00
2009,07,02,07,01,12.10
2009,07,02,07,02,12.10
2009,07,02,07,03,12.10
2009,07,02,07,04,12.10
2009,07,02,07,05,12.20
2009,07,02,07,06,12.20
2009,07,02,07,07,12.20
2009,07,02,07,08,12.20
2009,07,02,07,09,12.30
2009,07,02,07,10,12.30
2009,07,02,07,11,12.30
2009,07,02,07,12,12.40
2009,07,02,07,13,12.40
2009,07,02,07,14,12.50
2009,07,02,07,15,12.60
2009,07,02,07,16,12.60
2009,07,02,07,17,12.70
2009,07,02,07,18,12.70
2009,07,02,07,19,12.80
2009,07,02,07,20,12.80
2009,07,02,07,21,12.80
2009,07,02,07,22,12.90
2009,07,02,07,23,13.00
2009,07,02,07,24,13.00
2009,07,02,07,25,13.10
2009,07,02,07,26,13.10
2009,07,02,07,27,13.20
2009,07,02,07,28,13.20
2009,07,02,07,29,13.30
2009,07,02,07,30,13.40
2009,07,02,07,31,13.50
2009,07,02,07,32,13.60
2009,07,02,07,33,13.70
2009,07,02,07,34,13.80
2009,07,02,07,35,13.90
2009,07,02,07,36,13.90
2009,07,02,07,37,14.00
2009,07,02,07,38,14.10
2009,07,02,07,39,14.20
2009,07,02,07,40,14.30
2009,07,02,07,41,14.30
2009,07,02,07,42,14.30
2009,07,02,07,43,14.40
2009,07,02,07,44,14.40
2009,07,02,07,45,14.50
2009,07,02,07,46,14.60
2009,07,02,07,47,14.60
2009,07,02,07,48,14.70
2009,07,02,07,49,14.80
2009,07,02,07,50,14.90
2009,07,02,07,51,15.00
2009,07,02,07,52,15.00
2009,07,02,07,53,15.10
2009,07,02,07,54,15.20
2009,07,02,07,55,15.30
2009,07,02,07,56,15.50
2009,07,02,07,57,15.60
2009,07,02,07,58,15.80
2009,07,02,07,59,15.90
2009,07,02,08,00,16.00
2009,07,02,08,01,16.10
2009,07,02,08,02,16.20
2009,07,02,08,03,16.30
2009,07,02,08,04,16.50
2009,07,02,08,05,16.60
2009,07,02,08,06,16.70
2009,07,02,08,07,16.80
2009,07,02,08,08,16.90
2009,07,02,08,09,17.00
2009,07,02,08,10,17.10
2009,07,02,08,11,17.20
2009,07,02,08,12,17.30
2009,07,02,08,13,17.40
2009,07,02,08,14,17.50
2009,07,02,08,15,17.60
2009,07,02,08,16,17.80
2009,07,02,08,17,17.80
2009,07,02,08,18,17.90
2009,07,02,08,19,18.00
2009,07,02,08,20,18.10
2009,07,02,08,21,18.10
2009,07,02,08,22,18.20
2009,07,02,08,23,18.30
2009,07,02,08,24,18.40
2009,07,02,08,25,18.50
2009,07,02,08,26,18.60
2009,07,02,08,27,18.60
2009,07,02,08,28,18.60
2009,07,02,08,29,18.50
2009,07,02,08,30,18.40
2009,07,02,08,31,18.40
2009,07,02,08,32,18.40
2009,07,02,08,33,18.30
2009,07,02,08,34,18.40
2009,07,02,08,35,18.40
2009,07,02,08,36,18.50
2009,07,02,08,37,18.50
2009,07,02,08,38,18.60
2009,07,02,08,39,18.60
2009,07,02,08,40,18.70
2009,07,02,08,41,18.70
2009,07,02,08,42,18.70
2009,07,02,08,43,18.80
2009,07,02,08,44,18.80
2009,07,02,08,45,18.90
2009,07,02,08,46,19.00
2009,07,02,08,47,19.00
2009,07,02,08,48,19.00
2009,07,02,08,49,19.10
2009,07,02,08,50,19.10
2009,07,02,08,51,19.10
2009,07,02,08,52,19.10
2009,07,02,08,53,19.10
2009,07,02,08,54,19.10
2009,07,02,08,55,19.00
2009,07,02,08,56,19.10
2009,07,02,08,57,19.10
2009,07,02,08,58,19.10
2009,07,02,08,59,19.10
2009,07,02,09,00,19.10
2009,07,02,09,01,19.20
2009,07,02,09,02,19.20
2009,07,02,09,03,19.30
2009,07,02,09,04,19.40
2009,07,02,09,05,19.40
2009,07,02,09,06,19.50
2009,07,02,09,07,19.50
2009,07,02,09,08,19.60
2009,07,02,09,09,19.60
2009,07,02,09,10,19.60
2009,07,02,09,11,19.50
2009,07,02,09,12,19.50
2009,07,02,09,13,19.50
2009,07,02,09,14,19.50
2009,07,02,09,15,19.40
2009,07,02,09,16,19.40
2009,07,02,09,17,19.30
2009,07,02,09,18,19.30
2009,07,02,09,19,19.30
2009,07,02,09,20,19.30
2009,07,02,09,21,19.20
2009,07,02,09,22,19.30
2009,07,02,09,23,19.30
2009,07,02,09,24,19.40
2009,07,02,09,25,19.50
2009,07,02,09,26,19.50
2009,07,02,09,27,19.60
2009,07,02,09,28,19.60
2009,07,02,09,29,19.70
2009,07,02,09,30,19.70
2009,07,02,09,31,19.70
2009,07,02,09,32,19.70
2009,07,02,09,33,19.70
2009,07,02,09,34,19.70
2009,07,02,09,35,19.80
2009,07,02,09,36,19.80
2009,07,02,09,37,19.80
2009,07,02,09,38,19.80
2009,07,02,09,39,19.80
2009,07,02,09,40,19.80
2009,07,02,09,41,19.80
2009,07,02,09,42,19.80
2009,07,02,09,43,19.80
2009,07,02,09,44,19.80
2009,07,02,09,45,19.70
2009,07,02,09,46,19.70
2009,07,02,09,47,19.70
2009,07,02,09,48,19.60
2009,07,02,09,49,19.50
2009,07,02,09,50,19.50
2009,07,02,09,51,19.50
2009,07,02,09,52,19.50
2009,07,02,09,53,19.50
2009,07,02,09,54,19.50
2009,07,02,09,55,19.50
2009,07,02,09,56,19.50
2009,07,02,09,57,19.50
2009,07,02,09,58,19.50
2009,07,02,09,59,19.50
2009,07,02,10,00,19.50
2009,07,02,10,01,19.40
2009,07,02,10,02,19.40
2009,07,02,10,03,19.50
2009,07,02,10,04,19.50
2009,07,02,10,05,19.40
2009,07,02,10,06,19.50
2009,07,02,10,07,19.50
2009,07,02,10,08,19.60
2009,07,02,10,09,19.60
2009,07,02,10,10,19.60
2009,07,02,10,11,19.60
2009,07,02,10,12,19.70
2009,07,02,10,13,19.70
2009,07,02,10,14,19.70
2009,07,02,10,15,19.70
2009,07,02,10,16,19.70
2009,07,02,10,17,19.70
2009,07,02,10,18,19.70
2009,07,02,10,19,19.80
2009,07,02,10,20,19.80
2009,07,02,10,21,19.80
2009,07,02,10,22,19.90
2009,07,02,10,23,20.00
2009,07,02,10,24,20.00
2009,07,02,10,25,20.00
2009,07,02,10,26,20.10
2009,07,02,10,27,20.10
2009,07,02,10,28,20.10
2009,07,02,10,29,20.10
2009,07,02,10,30,20.20
2009,07,02,10,31,20.20
2009,07,02,10,32,20.20
2009,07,02,10,33,20.30
2009,07,02,10,34,20.30
2009,07,02,10,35,20.30
2009,07,02,10,36,20.40
2009,07,02,10,37,20.50
2009,07,02,10,38,20.50
2009,07,02,10,39,20.60
2009,07,02,10,40,20.60
2009,07,02,10,41,20.70
2009,07,02,10,42,20.70
2009,07,02,10,43,20.70
2009,07,02,10,44,20.70
2009,07,02,10,45,20.60
2009,07,02,10,46,20.60
2009,07,02,10,47,20.60
2009,07,02,10,48,20.60
2009,07,02,10,49,20.60
2009,07,02,10,50,20.70
2009,07,02,10,51,20.70
2009,07,02,10,52,20.70
2009,07,02,10,53,20.70
2009,07,02,10,54,20.60
2009,07,02,10,55,20.50
2009,07,02,10,56,20.40
2009,07,02,10,57,20.30
2009,07,02,10,58,20.30
2009,07,02,10,59,20.20
2009,07,02,11,00,20.20
2009,07,02,11,01,20.20
2009,07,02,11,02,20.10
2009,07,02,11,03,20.00
2009,07,02,11,04,20.00
2009,07,02,11,05,20.00
2009,07,02,11,06,20.10
2009,07,02,11,07,20.20
2009,07,02,11,08,20.30
2009,07,02,11,09,20.30
2009,07,02,11,10,20.40
2009,07,02,11,11,20.40
2009,07,02,11,12,20.40
2009,07,02,11,13,20.40
2009,07,02,11,14,20.40
2009,07,02,11,15,20.50
2009,07,02,11,16,20.50
2009,07,02,11,17,20.50
2009,07,02,11,18,20.60
2009,07,02,11,19,20.50
2009,07,02,11,20,20.50
2009,07,02,11,21,20.50
2009,07,02,11,22,20.50
2009,07,02,11,23,20.60
2009,07,02,11,24,20.60
2009,07,02,11,25,20.50
2009,07,02,11,26,20.50
2009,07,02,11,27,20.50
2009,07,02,11,28,20.60
2009,07,02,11,29,20.70
2009,07,02,11,30,20.70
2009,07,02,11,31,20.80
2009,07,02,11,32,20.80
2009,07,02,11,33,20.90
2009,07,02,11,34,20.90
2009,07,02,11,35,20.90
2009,07,02,11,36,20.90
2009,07,02,11,37,20.90
2009,07,02,11,38,20.80
2009,07,02,11,39,20.80
2009,07,02,11,40,20.80
2009,07,02,11,41,20.70
2009,07,02,11,42,20.60
2009,07,02,11,43,20.60
2009,07,02,11,44,20.50
2009,07,02,11,45,20.40
2009,07,02,11,46,20.40
2009,07,02,11,47,20.30
2009,07,02,11,48,20.20
2009,07,02,11,49,20.20
2009,07,02,11,50,20.20
2009,07,02,11,51,20.20
2009,07,02,11,52,20.30
2009,07,02,11,53,20.30
2009,07,02,11,54,20.20
2009,07,02,11,55,20.20
2009,07,02,11,56,20.20
2009,07,02,11,57,20.20
2009,07,02,11,58,20.30
2009,07,02,11,59,20.30
2009,07,02,12,00,20.30
2009,07,02,12,01,20.30
2009,07,02,12,02,20.30
2009,07,02,12,03,20.40
2009,07,02,12,04,20.40
2009,07,02,12,05,20.40
2009,07,02,12,06,20.40
2009,07,02,12,07,20.40
2009,07,02,12,08,20.40
2009,07,02,12,09,20.40
2009,07,02,12,10,20.40
2009,07,02,12,11,20.50
2009,07,02,12,12,20.50
2009,07,02,12,13,20.60
2009,07,02,12,14,20.60
2009,07,02,12,15,20.60
2009,07,02,12,16,20.60
2009,07,02,12,17,20.60
2009,07,02,12,18,20.60
2009,07,02,12,19,20.60
2009,07,02,12,20,20.50
2009,07,02,12,21,20.60
2009,07,02,12,22,20.70
2009,07,02,12,23,20.70
2009,07,02,12,24,20.70
2009,07,02,12,25,20.80
2009,07,02,12,26,20.80
2009,07,02,12,27,20.80
2009,07,02,12,28,20.90
2009,07,02,12,29,21.00
2009,07,02,12,30,21.10
2009,07,02,12,31,21.20
2009,07,02,12,32,21.30
2009,07,02,12,33,21.20
2009,07,02,12,34,21.20
2009,07,02,12,35,21.20
2009,07,02,12,36,21.20
2009,07,02,12,37,21.20
2009,07,02,12,38,21.20
2009,07,02,12,39,21.10
2009,07,02,12,40,21.00
2009,07,02,12,41,21.00
2009,07,02,12,42,21.00
2009,07,02,12,43,21.00
2009,07,02,12,44,21.10
2009,07,02,12,45,21.10
2009,07,02,12,46,21.00
2009,07,02,12,47,21.00
2009,07,02,12,48,21.00
2009,07,02,12,49,21.10
2009,07,02,12,50,21.10
2009,07,02,12,51,21.20
2009,07,02,12,52,21.20
2009,07,02,12,53,21.20
2009,07,02,12,54,21.30
2009,07,02,12,55,21.40
2009,07,02,12,56,21.50
2009,07,02,12,57,21.60
2009,07,02,12,58,21.70
2009,07,02,12,59,21.70
2009,07,02,13,00,21.70
2009,07,02,13,01,21.70
2009,07,02,13,02,21.60
2009,07,02,13,03,21.50
2009,07,02,13,04,21.40
2009,07,02,13,05,21.40
2009,07,02,13,06,21.40
2009,07,02,13,07,21.50
2009,07,02,13,08,21.60
2009,07,02,13,09,21.70
2009,07,02,13,10,21.80
2009,07,02,13,11,21.90
2009,07,02,13,12,21.90
2009,07,02,13,13,22.00
2009,07,02,13,14,22.00
2009,07,02,13,15,22.00
2009,07,02,13,16,21.90
2009,07,02,13,17,21.90
2009,07,02,13,18,21.90
2009,07,02,13,19,21.90
2009,07,02,13,20,21.90
2009,07,02,13,21,22.00
2009,07,02,13,22,22.10
2009,07,02,13,23,22.10
2009,07,02,13,24,22.10
2009,07,02,13,25,22.10
2009,07,02,13,26,22.10
2009,07,02,13,27,22.10
2009,07,02,13,28,22.00
2009,07,02,13,29,22.00
2009,07,02,13,30,21.90
2009,07,02,13,31,21.90
2009,07,02,13,32,21.90
2009,07,02,13,33,21.90
2009,07,02,13,34,21.90
2009,07,02,13,35,21.90
2009,07,02,13,36,21.90
2009,07,02,13,37,21.80
2009,07,02,13,38,21.80
2009,07,02,13,39,21.80
2009,07,02,13,40,21.80
2009,07,02,13,41,21.70
2009,07,02,13,42,21.60
2009,07,02,13,43,21.60
2009,07,02,13,44,21.60
2009,07,02,13,45,21.60
2009,07,02,13,46,21.60
2009,07,02,13,47,21.60
2009,07,02,13,48,21.70
2009,07,02,13,49,21.70
2009,07,02,13,50,21.80
2009,07,02,13,51,21.80
2009,07,02,13,52,21.90
2009,07,02,13,53,21.90
2009,07,02,13,54,22.00
2009,07,02,13,55,22.00
2009,07,02,13,56,22.00
2009,07,02,13,57,22.10
2009,07,02,13,58,22.10
2009,07,02,13,59,22.10
2009,07,02,14,00,22.10
2009,07,02,14,01,22.10
2009,07,02,14,02,22.20
2009,07,02,14,03,22.10
2009,07,02,14,04,22.10
2009,07,02,14,05,22.00
2009,07,02,14,06,22.00
2009,07,02,14,07,22.00
2009,07,02,14,08,22.00
2009,07,02,14,09,22.10
2009,07,02,14,10,22.20
2009,07,02,14,11,22.30
2009,07,02,14,12,22.40
2009,07,02,14,13,22.40
2009,07,02,14,14,22.40
2009,07,02,14,15,22.40
2009,07,02,14,16,22.30
2009,07,02,14,17,22.30
2009,07,02,14,18,22.40
2009,07,02,14,19,22.40
2009,07,02,14,20,22.50
2009,07,02,14,21,22.60
2009,07,02,14,22,22.70
2009,07,02,14,23,22.70
2009,07,02,14,24,22.70
2009,07,02,14,25,22.70
2009,07,02,14,26,22.80
2009,07,02,14,27,22.80
2009,07,02,14,28,22.90
2009,07,02,14,29,22.90
2009,07,02,14,30,22.80
2009,07,02,14,31,22.70
2009,07,02,14,32,22.70
2009,07,02,14,33,22.80
2009,07,02,14,34,22.90
2009,07,02,14,35,23.00
2009,07,02,14,36,23.10
2009,07,02,14,37,23.20
2009,07,02,14,38,23.20
2009,07,02,14,39,23.20
2009,07,02,14,40,23.20
2009,07,02,14,41,23.10
2009,07,02,14,42,23.10
2009,07,02,14,43,23.00
2009,07,02,14,44,22.90
2009,07,02,14,45,22.80
2009,07,02,14,46,22.70
2009,07,02,14,47,22.70
2009,07,02,14,48,22.70
2009,07,02,14,49,22.80
2009,07,02,14,50,22.90
2009,07,02,14,51,22.90
2009,07,02,14,52,23.00
2009,07,02,14,53,23.00
2009,07,02,14,54,23.10
2009,07,02,14,55,23.00
2009,07,02,14,56,23.00
2009,07,02,14,57,23.00
2009,07,02,14,58,23.00
2009,07,02,14,59,23.10
2009,07,02,15,00,23.10
2009,07,02,15,01,23.10
2009,07,02,15,02,23.20
2009,07,02,15,03,23.30
2009,07,02,15,04,23.30
2009,07,02,15,05,23.40
2009,07,02,15,06,23.40
2009,07,02,15,07,23.40
2009,07,02,15,08,23.50
2009,07,02,15,09,23.60
2009,07,02,15,10,23.60
2009,07,02,15,11,23.50
2009,07,02,15,12,23.50
2009,07,02,15,13,23.50
2009,07,02,15,14,23.50
2009,07,02,15,15,23.50
2009,07,02,15,16,23.50
2009,07,02,15,17,23.50
2009,07,02,15,18,23.60
2009,07,02,15,19,23.50
2009,07,02,15,20,23.60
2009,07,02,15,21,23.60
2009,07,02,15,22,23.60
2009,07,02,15,23,23.70
2009,07,02,15,24,23.70
2009,07,02,15,25,23.70
2009,07,02,15,26,23.80
2009,07,02,15,27,23.80
2009,07,02,15,28,23.90
2009,07,02,15,29,23.90
2009,07,02,15,30,24.00
2009,07,02,15,31,24.00
2009,07,02,15,32,24.00
2009,07,02,15,33,24.00
2009,07,02,15,34,24.00
2009,07,02,15,35,24.00
2009,07,02,15,36,24.00
2009,07,02,15,37,24.10
2009,07,02,15,38,24.20
2009,07,02,15,39,24.20
2009,07,02,15,40,24.30
2009,07,02,15,41,24.40
2009,07,02,15,42,24.50
2009,07,02,15,43,24.50
2009,07,02,15,44,24.60
2009,07,02,15,45,24.60
2009,07,02,15,46,24.60
2009,07,02,15,47,24.60
2009,07,02,15,48,24.70
2009,07,02,15,49,24.70
2009,07,02,15,50,24.70
2009,07,02,15,51,24.70
2009,07,02,15,52,24.60
2009,07,02,15,53,24.50
2009,07,02,15,54,24.50
2009,07,02,15,55,24.60
2009,07,02,15,56,24.60
2009,07,02,15,57,24.70
2009,07,02,15,58,24.90
2009,07,02,15,59,25.00
2009,07,02,16,00,25.10
2009,07,02,16,01,25.10
2009,07,02,16,02,25.20
2009,07,02,16,03,25.30
2009,07,02,16,04,25.30
2009,07,02,16,05,25.30
2009,07,02,16,06,25.30
2009,07,02,16,07,25.30
2009,07,02,16,08,25.00
2009,07,02,16,09,24.80
2009,07,02,16,10,24.70
2009,07,02,16,11,24.50
2009,07,02,16,12,24.40
2009,07,02,16,13,24.30
2009,07,02,16,14,24.20
2009,07,02,16,15,24.10
2009,07,02,16,16,24.10
2009,07,02,16,17,24.10
2009,07,02,16,18,24.20
2009,07,02,16,19,24.30
2009,07,02,16,20,24.30
2009,07,02,16,21,24.40
2009,07,02,16,22,24.50
2009,07,02,16,23,24.60
2009,07,02,16,24,24.70
2009,07,02,16,25,24.70
2009,07,02,16,26,24.70
2009,07,02,16,27,24.70
2009,07,02,16,28,24.80
2009,07,02,16,29,24.80
2009,07,02,16,30,24.80
2009,07,02,16,31,24.70
2009,07,02,16,32,24.60
2009,07,02,16,33,24.60
2009,07,02,16,34,24.50
2009,07,02,16,35,24.40
2009,07,02,16,36,24.40
2009,07,02,16,37,24.50
2009,07,02,16,38,24.60
2009,07,02,16,39,24.70
2009,07,02,16,40,24.70
2009,07,02,16,41,24.70
2009,07,02,16,42,24.70
2009,07,02,16,43,24.60
2009,07,02,16,44,24.70
2009,07,02,16,45,24.70
2009,07,02,16,46,24.80
2009,07,02,16,47,24.80
2009,07,02,16,48,24.80
2009,07,02,16,49,24.80
2009,07,02,16,50,24.90
2009,07,02,16,51,24.90
2009,07,02,16,52,24.90
2009,07,02,16,53,25.00
2009,07,02,16,54,25.10
2009,07,02,16,55,25.10
2009,07,02,16,56,25.10
2009,07,02,16,57,25.10
2009,07,02,16,58,25.00
2009,07,02,16,59,24.90
2009,07,02,17,00,24.80
2009,07,02,17,01,24.70
2009,07,02,17,02,24.60
2009,07,02,17,03,24.60
2009,07,02,17,04,24.70
2009,07,02,17,05,24.70
2009,07,02,17,06,24.70
2009,07,02,17,07,24.50
2009,07,02,17,08,24.30
2009,07,02,17,09,24.20
2009,07,02,17,10,24.10
2009,07,02,17,11,24.10
2009,07,02,17,12,24.00
2009,07,02,17,13,23.90
2009,07,02,17,14,23.90
2009,07,02,17,15,23.90
2009,07,02,17,16,23.80
2009,07,02,17,17,23.80
2009,07,02,17,18,23.70
2009,07,02,17,19,23.70